Change the Weather History Date:

Wednesday, March 27, 2013

  Actual Average Record
Temperature  
Mean Temperature 45 °F 61 °F  
Max Temperature 61 °F 74 °F 86 °F (2012)
Min Temperature 28 °F 49 °F 25 °F (1955)
Degree Days  
Heating Degree Days 20 5  
Month to date heating degree days 323 197  
Since 1 July heating degree days 1716 1875  
Cooling Degree Days 0 1  
Month to date cooling degree days 9 27  
Year to date cooling degree days 37 42  
Moisture  
Dew Point 27 °F    
Average Humidity 58    
Maximum Humidity 92    
Minimum Humidity 23    
Precipitation  
Precipitation 0.00 in 0.17 in 4.43 in (1974)
Month to date precipitation 1.83 4.77  
Year to date precipitation 20.26 15.90  
Sea Level Pressure  
Sea Level Pressure 30.37 in    
Wind  
Wind Speed 1 mph (NNE)    
Max Wind Speed 13 mph    
Max Gust Speed -    
Visibility 10 miles    
Events      
T = Trace of Precipitation, MM = Missing Value Source: NWS Daily Summary

Daily Weather History Graph

Daily Weather History Graph

Search for Another Location

Airport or City:

Trip Planner

Search our weather history database for the weather conditions in past years. The results will help you decide how hot, cold, wet, or windy it might be!

Date:

Astronomy

Mar. 27, 2013 Rise Set
Actual Time 6:51 AM CDT 7:13 PM CDT
Civil Twilight 6:27 AM CDT 7:37 PM CDT
Nautical Twilight 5:59 AM CDT 8:06 PM CDT
Astronomical Twilight 5:30 AM CDT 8:34 PM CDT
Moon 7:51 PM CDT (3/27) 6:45 AM CDT (3/27)
Length of Visible Light 13h 10m
Length of Day
12h 21m
Full, 100% of the Moon is Illuminated
Mar 27
Full
Apr 2
Last Quarter
Apr 10
New
Apr 18
First Quarter
Apr 25
Full

Hourly Weather History & Observations

Time (CDT) Temp. Dew Point Humidity Pressure Visibility Wind Dir Wind Speed Gust Speed Precip Events Conditions
12:53 AM 36.0 °F 27.0 °F 70% 30.41 in 10.0 mi Calm Calm - N/A   Unknown
1:53 AM 33.1 °F 28.0 °F 82% 30.40 in 10.0 mi Calm Calm - N/A   Clear
2:53 AM 32.0 °F 27.0 °F 82% 30.38 in 10.0 mi Calm Calm - N/A   Clear
3:53 AM 30.0 °F 27.0 °F 88% 30.39 in 10.0 mi Calm Calm - N/A   Clear
4:53 AM 28.9 °F 27.0 °F 92% 30.39 in 10.0 mi Calm Calm - N/A   Clear
5:53 AM 28.9 °F 26.1 °F 89% 30.40 in 10.0 mi Calm Calm - N/A   Clear
6:53 AM 28.9 °F 26.1 °F 89% 30.42 in 10.0 mi Calm Calm - N/A   Clear
7:53 AM 32.0 °F 28.9 °F 88% 30.44 in 10.0 mi Calm Calm - N/A   Clear
8:53 AM 37.9 °F 30.9 °F 76% 30.46 in 10.0 mi Calm Calm - N/A   Clear
10:53 AM 46.9 °F 25.0 °F 42% 30.46 in 10.0 mi Calm Calm - N/A   Clear
11:53 AM 51.1 °F 26.1 °F 38% 30.45 in 10.0 mi Variable 4.6 mph - N/A   Clear
12:53 PM 53.1 °F 23.0 °F 31% 30.42 in 10.0 mi Calm Calm - N/A   Clear
1:53 PM 55.9 °F 26.1 °F 32% 30.38 in 10.0 mi Variable 3.5 mph - N/A   Clear
2:53 PM 57.0 °F 21.0 °F 25% 30.35 in 10.0 mi Variable 3.5 mph - N/A   Clear
3:53 PM 59.0 °F 21.9 °F 24% 30.33 in 10.0 mi North - - N/A   Clear
4:53 PM 60.1 °F 23.0 °F 24% 30.31 in 10.0 mi NNW 6.9 mph - N/A   Clear
5:53 PM 60.1 °F 24.1 °F 25% 30.31 in 10.0 mi NNE 3.5 mph - N/A   Clear
6:53 PM 59.0 °F 24.1 °F 26% 30.30 in 10.0 mi NE 3.5 mph - N/A   Clear
7:53 PM 51.1 °F 32.0 °F 48% 30.31 in 10.0 mi Calm Calm - N/A   Clear
8:53 PM 44.1 °F 33.1 °F 65% 30.31 in 10.0 mi Calm Calm - N/A   Clear
9:53 PM 42.1 °F 33.1 °F 70% 30.32 in 10.0 mi Calm Calm - N/A   Clear
10:53 PM 39.9 °F 34.0 °F 79% 30.32 in 10.0 mi Calm Calm - N/A   Clear
11:53 PM 39.0 °F 33.1 °F 79% 30.33 in 10.0 mi Calm Calm - N/A   Clear